| time (UTC) | temp C | wind direction | speed KPH | gust KPH | rain 1hr cm | rain 24hr cm | rain mn cm | humidity % | barometer mb |
| 20260505180342 | 10 | 0.0 | 0.0 | 0.00 | 0.41 | 0.00 | 91 | 999.3 | |
| 20260505170339 | 11 | 0.0 | 0.0 | 0.00 | 0.41 | 0.00 | 90 | 999.6 | |
| 20260505160408 | 10 | 0.0 | 0.0 | 0.00 | 0.41 | 0.00 | 91 | 999.6 | |
| 20260505150326 | 10 | 0.0 | 0.0 | 0.00 | 0.41 | 0.00 | 92 | 999.5 | |
| 20260505110345 | 10 | 0.0 | 0.0 | 0.00 | 0.41 | 0.00 | 89 | 999.7 | |
| 20260505100331 | 10 | 0.0 | 0.0 | 0.00 | 0.41 | 0.00 | 90 | 1000.2 | |
| 20260505090335 | 10 | 0.0 | 0.0 | 0.10 | 0.41 | 0.08 | 92 | 1000.8 | |
| 20260505080336 | 10 | 0.0 | 0.0 | 0.20 | 0.30 | 0.05 | 91 | 1001.4 | |
| 20260505070335 | 10 | 0.0 | 0.0 | 0.10 | 0.10 | 0.03 | 86 | 1002.3 | |
| 20260505060357 | 15 | 0.0 | 0.0 | 0.00 | 0.00 | 0.00 | 49 | 1002.4 | |
| 20260505050355 | 15 | 0.0 | 0.0 | 0.00 | 0.00 | 0.00 | 47 | 1003.2 | |
| 20260505040338 | 15 | 0.0 | 0.0 | 0.00 | 0.00 | 0.00 | 47 | 1003.2 | |
| 20260505030333 | 13 | 0.0 | 0.0 | 0.00 | 0.00 | 0.00 | 50 | 1003.4 | |
| 20260505020341 | 11 | 0.0 | 0.0 | 0.00 | 0.00 | 0.00 | 55 | 1003.9 | |
| 20260505010354 | 8 | 0.0 | 0.0 | 0.00 | 0.00 | 0.00 | 67 | 1004.4 | |
| 20260505000343 | 2 | 0.0 | 0.0 | 0.00 | 0.00 | 0.00 | 85 | 1004.6 | |
| 20260504230341 | 1 | 0.0 | 0.0 | 0.00 | 0.10 | 0.00 | 87 | 1004.9 | |
| 20260504220335 | 1 | 0.0 | 0.0 | 0.00 | 0.10 | 0.00 | 86 | 1005.1 | |
| 20260504210348 | 2 | 0.0 | 0.0 | 0.00 | 0.10 | 0.00 | 82 | 1005.5 | |
| 20260504200346 | 3 | 0.0 | 0.0 | 0.00 | 0.10 | 0.00 | 81 | 1005.5 | |
| 20260504190404 | 4 | 0.0 | 0.0 | 0.00 | 0.10 | 0.00 | 77 | 1005.7 |